[[{"header":{"parameterUnit":"m.s-1","parameterCategory":1,"la1":30.2992,"la2":30.254,"lo1":-89.0895,"lo2":-89.0443,"dy":0.0025,"dx":0.0025,"nx":19,"ny":19,"refTime":"2026-03-24T03:00:00:Z","depth":0,"parameterNumber":2,"parameterNumberName":"U-component_of_WINDS"},"data":[0,0,0,-3.6454,-3.6457,-3.6613,-3.6613,-3.6813,-3.6815,0,0,0,0,0,0,0,0,0,0,0,-3.6409,-3.641,-3.6453,-3.6457,-3.6612,-3.6613,-3.6813,-3.6815,0,0,0,0,0,0,0,0,0,0,0,-3.6408,-3.641,-3.6411,-3.6458,-3.6612,-3.6613,-3.6812,-3.6695,0,0,0,0,0,0,0,0,0,0,-3.6543,-3.6503,-3.6409,-3.6411,-3.6459,-3.6612,-3.6613,-3.6689,-3.6702,-3.6744,0,-3.6781,0,-3.6801,-3.6829,-3.6829,0,0,0,-3.6456,-3.6492,-3.6533,-3.6412,-3.646,-3.6612,-3.6542,-3.6696,-3.6711,-3.6761,-3.6784,-3.6791,-3.6805,-3.683,-3.6831,-3.7075,-3.7076,0,0,-3.6448,-3.6437,-3.6523,-3.6543,-3.6519,-3.6537,-3.6547,-3.6705,-3.6729,-3.6785,-3.6796,-3.6808,-3.6831,-3.6833,-3.7074,-3.7076,0,0,0,-3.6424,-3.6431,-3.6468,-3.6535,-3.6563,-3.6542,-3.6553,-3.6722,-3.6735,-3.6798,-3.681,-3.6832,-3.6835,-3.7073,-3.7075,-3.7121,0,0,0,-3.6418,-3.6417,-3.6464,-3.6459,-3.656,-3.6644,-3.6567,-3.6724,-3.6743,-3.6809,-3.6832,-3.6837,-3.7072,-3.7074,-3.7117,-3.7144,0,0,0,-3.6398,-3.6415,-3.6438,-3.6459,-3.6525,-3.6642,-3.6664,-3.6729,-3.675,-3.6829,-3.6837,-3.7071,-3.7073,-3.7114,-3.7138,-3.7204,0,0,0,-3.6373,-3.6477,-3.6438,-3.656,-3.6524,-3.6671,-3.6663,-3.6774,-3.6847,-3.6833,-3.7072,-3.7075,-3.7113,-3.7135,-3.72,-3.7255,-3.7277,0,0,-3.6498,-3.6492,-3.6564,-3.6534,-3.6685,-3.6648,-3.6807,-3.6884,-3.6902,-3.7016,-3.7023,-3.7119,-3.7138,-3.7203,-3.7414,-3.7432,0,0,0,-3.66,-3.6651,-3.6694,-3.6764,-3.6827,-3.6883,-3.6938,-3.6967,-3.7065,-3.6959,-3.7162,-3.7174,-3.7213,-3.7239,-3.7254,-3.7287,-3.7087,-3.7087,-3.7087,-3.6759,-3.6777,-3.6897,-3.6934,-3.7003,-3.706,-3.7117,-3.7165,-3.7163,-3.7211,-3.7244,-3.737,-3.7401,-3.7412,-3.7446,-3.7277,-3.7277,-3.7278,-3.7278,-3.6941,-3.7015,-3.7013,-3.7128,-3.7146,-3.7244,-3.7304,-3.7299,-3.7392,-3.7346,-3.7381,-3.7327,-3.7431,-3.7462,-3.7282,-3.7281,-3.728,-3.728,-3.728,-3.7044,-3.7082,-3.7118,-3.7222,-3.73,-3.7336,-3.7425,-3.744,-3.7454,-3.7489,-3.7524,-3.7523,-3.7522,-3.7506,-3.7506,-3.7507,-3.7507,-3.7507,-3.7508,-3.7134,-3.7173,-3.7246,-3.7324,-3.7371,-3.7436,-3.7497,-3.7544,-3.7599,-3.7603,-3.7603,-3.7595,-3.744,-3.7398,-3.7514,-3.7513,-3.7512,-3.7512,-3.7511,-3.7306,-3.727,-3.7383,-3.7431,-3.7524,-3.76,-3.762,-3.7715,-3.7757,-3.78,-3.7787,-3.7671,-3.7664,-3.7652,-3.7618,-3.7784,-3.7784,-3.7784,-3.7784,-3.7389,-3.7389,-3.7509,-3.7584,-3.766,-3.769,-3.7818,-3.7867,-3.7912,-3.7939,-3.7918,-3.7875,-3.7863,-3.7864,-3.7847,-3.7815,-3.8028,-3.8028,-3.8028,-3.7494,-3.7503,-3.7607,-3.7652,-3.7726,-3.779,-3.791,-3.7997,-3.8041,-3.8038,-3.796,-3.7949,-3.788,-3.7858,-3.7848,-3.7822,-3.7763,0,0]},{"header":{"parameterUnit":"m.s-1","parameterCategory":1,"la1":30.2992,"la2":30.254,"lo1":-89.0895,"lo2":-89.0443,"dy":0.0025,"dx":0.0025,"nx":19,"ny":19,"refTime":"2026-03-24T03:00:00:Z","depth":0,"parameterNumber":3,"parameterNumberName":"V-component_of_WINDS"},"data":[0,0,0,1.6586,1.6588,1.6656,1.6657,1.6739,1.674,0,0,0,0,0,0,0,0,0,0,0,1.6563,1.6564,1.6586,1.6588,1.6656,1.6657,1.6739,1.674,0,0,0,0,0,0,0,0,0,0,0,1.6563,1.6564,1.6564,1.6588,1.6656,1.6657,1.6739,1.6689,0,0,0,0,0,0,0,0,0,0,1.6623,1.6599,1.6564,1.6564,1.6588,1.6656,1.6657,1.6686,1.6692,1.6706,0,1.6718,0,1.6731,1.6745,1.6745,0,0,0,1.6589,1.6595,1.6616,1.6564,1.6589,1.6656,1.6626,1.6689,1.6695,1.6713,1.672,1.6723,1.6732,1.6745,1.6746,1.6826,1.6826,0,0,1.6585,1.6574,1.6612,1.662,1.661,1.6624,1.6628,1.6693,1.6699,1.672,1.6725,1.6733,1.6746,1.6747,1.6826,1.6826,0,0,0,1.6574,1.6571,1.6591,1.6616,1.6629,1.6625,1.663,1.6696,1.6704,1.6726,1.6734,1.6746,1.6747,1.6826,1.6826,1.683,0,0,0,1.6571,1.6564,1.6589,1.6582,1.6628,1.6664,1.6632,1.6699,1.6707,1.6734,1.6746,1.6748,1.6825,1.6826,1.6829,1.6833,0,0,0,1.656,1.6563,1.6572,1.6582,1.6611,1.6663,1.6674,1.6701,1.6712,1.6745,1.6748,1.6825,1.6826,1.6829,1.6832,1.6851,0,0,0,1.6543,1.6573,1.6572,1.6609,1.661,1.6666,1.6674,1.6715,1.6744,1.6747,1.6825,1.6826,1.6828,1.6831,1.685,1.6864,1.687,0,0,1.6574,1.6577,1.6599,1.66,1.6653,1.6656,1.6709,1.6746,1.6759,1.6803,1.6805,1.683,1.6832,1.6851,1.6904,1.6908,0,0,0,1.6605,1.6621,1.6638,1.6666,1.6697,1.6723,1.6754,1.6768,1.6806,1.678,1.6843,1.6844,1.6856,1.6863,1.6867,1.6877,1.6829,1.6829,1.6829,1.663,1.6648,1.6688,1.6714,1.6741,1.6774,1.6798,1.6822,1.683,1.6845,1.6857,1.6888,1.6896,1.6898,1.6909,1.6867,1.6867,1.6867,1.6867,1.6677,1.6703,1.6716,1.6759,1.6777,1.6813,1.6847,1.6851,1.6887,1.6879,1.689,1.6879,1.6902,1.6913,1.6868,1.6868,1.6868,1.6868,1.6868,1.6694,1.671,1.6728,1.6773,1.6805,1.6832,1.6866,1.6882,1.6896,1.6907,1.6922,1.6922,1.6923,1.6914,1.6914,1.6914,1.6914,1.6914,1.6914,1.6704,1.6725,1.6753,1.6791,1.6812,1.6842,1.6878,1.6899,1.6927,1.6935,1.6935,1.6942,1.6902,1.6891,1.6916,1.6916,1.6915,1.6915,1.6915,1.6742,1.6737,1.6779,1.6801,1.6848,1.688,1.6901,1.6943,1.6963,1.698,1.6986,1.6954,1.6957,1.6954,1.6945,1.6982,1.6982,1.6982,1.6982,1.6755,1.6759,1.6808,1.6842,1.6878,1.6902,1.695,1.6979,1.7008,1.7022,1.7019,1.7009,1.7006,1.701,1.7007,1.6998,1.7048,1.7048,1.7048,1.6779,1.6788,1.6826,1.6856,1.6895,1.6927,1.6973,1.7012,1.7043,1.7051,1.7033,1.703,1.7014,1.7008,1.7012,1.7006,1.6991,0,0]}]]